STARLINK-5760, 55591

Orbit data source: Space-Track

STARLINK-5760, 55591 is a payload satellite owned by SpaceX/Seattle (US) in LEO that was launched on Sun, 12 Feb 2023 UTC via an FALCON 9 launch vehicle from the Air Force Eastern Test Range (AFETR). Payload-class satellites include a variety of spacecraft equipped with specific instruments for various scientific and technological missions. These include communications satellites like Starlink; space stations such as the ISS; scientific satellites like the Hubble; Earth observation satellites from companies like Planet Labs, Umbra, and HawkEye 360; GPS; miniature CubeSats for education and research; and military/defense satellites.

Loading next visibility...
Identifier
55591, 2023-020Y
Orbit
LEO
Country
Flag of USUS
Related business
Manufacturer
SpaceX/Seattle
Mission
Operational Commercial Communications
Bus & Motor
STARLINK, Unknown motor
Mass
305 kg wet, ~290 kg dry
Launch date (UTC)
2023-02-12 (4 years ago)
Launch vehicle
FALCON 9
Launch site
Air Force Eastern Test Range (AFETR)
Object type
Payload
Rocket body
Debris
Shape & HBR
Box + 1 Pan, 10.1 m
Radar Cross Section
13.562 m², Large (>1 m²)

Expand to show TLE details & history
Last TLE update: 5 hours ago

TLE from 5 hours ago
0 STARLINK-5760
1 55591U 23020Y   26264.27466347  .00000606  00000-0  31564-4 0  9996
2 55591  43.0053 340.7592 0002044 297.7854  62.2790 15.27575076198823
Epoch: 2026-09-21T06:35Z
TLE epoch observation values (Epoch: 2026-09-21T06:35:30.923Z)
Latitude
-0.00006°
Longitude
-118.27655°
Altitude
482.188 km
Speed
7.627 km/s
True Right ascension
22h 43m 02s
True Declination
0° 00' 00"
Sunlit
Object was in full shadow at epoch
Visualization orbit readout
Latitude
Unknown
Longitude
Unknown
Altitude
Unknown
Speed
Unknown
Apparent Right ascension
Unknown
Apparent Declination
Unknown
Sunlit
N/A
Visualization observer readout
Local Sidereal Time
04:57:29
Azimuth
Unknown
Elevation
Unknown
Doppler factor
Unknown
Orbital elements
Apogee altitude
486.411 km
Perigee altitude
483.605 km
Semi-major axis
6,863.145 km
Eccentricity
0.0002
Inclination
43.0053°
RAAN
340.7592°
Arg. of periapsis
297.7854°
True anomaly
62.29974°
Mean anomaly
62.279°
Eccentric anomaly
62.28937°
Mean motion
3.81732 °/min
Orbital period
94.31 mins
BSTAR
0.000031564
Loading maneuver chart data...
Computing Atmospheric mass density...
Loading historical data...
Loading historical data...
Loading historical data...
Loading historical data...
Loading historical data...
Loading historical data...
Loading historical data...

Documentation

Showing up to 5 results
|